This is the latest recevied weather packets stored in our database for station/object IR9AK-10. If no packets are shown the sender has not sent any weather packets the latest 1 day(s).
| Time | Temp. | Humidity | Pressure | Rain* | Wind** | Luminosity | Snow |
|---|---|---|---|---|---|---|---|
| 1788579754 | 36.67° C | 30% | 1062.9 hPa | - | - | - | - |
| 1788579154 | 36.67° C | 29% | 1062.9 hPa | - | - | - | - |
| 1788578556 | 36.67° C | 31% | 1062.9 hPa | - | - | - | - |
| 1788577957 | 36.67° C | 30% | 1062.8 hPa | - | - | - | - |
| 1788577358 | 36.67° C | 30% | 1062.9 hPa | - | - | - | - |
| 1788576760 | 36.67° C | 30% | 1062.9 hPa | - | - | - | - |
| 1788576160 | 36.67° C | 30% | 1062.8 hPa | - | - | - | - |
| 1788575561 | 36.67° C | 30% | 1062.9 hPa | - | - | - | - |
| 1788574961 | 36.67° C | 29% | 1062.9 hPa | - | - | - | - |
| 1788574363 | 36.67° C | 31% | 1062.8 hPa | - | - | - | - |
| 1788573763 | 37.22° C | 34% | 1062.8 hPa | - | - | - | - |
| 1788573164 | 37.22° C | 36% | 1063 hPa | - | - | - | - |
| 1788572565 | 37.22° C | 36% | 1063 hPa | - | - | - | - |
| 1788571965 | 37.22° C | 38% | 1063 hPa | - | - | - | - |
| 1788571366 | 37.78° C | 37% | 1062.9 hPa | - | - | - | - |
| 1788570767 | 37.78° C | 37% | 1062.9 hPa | - | - | - | - |
| 1788570168 | 37.78° C | 37% | 1062.8 hPa | - | - | - | - |
| 1788569569 | 36.67° C | 31% | 1062.8 hPa | - | - | - | - |
| 1788568971 | 37.22° C | 33% | 1062.8 hPa | - | - | - | - |
| 1788568372 | 37.22° C | 31% | 1062.7 hPa | - | - | - | - |
| 1788567774 | 36.67° C | 27% | 1062.6 hPa | - | - | - | - |
| 1788566819 | 36.67° C | 28% | 1062.7 hPa | - | - | - | - |
| 1788566220 | 36.67° C | 28% | 1062.8 hPa | - | - | - | - |
| 1788565620 | 36.67° C | 29% | 1062.9 hPa | - | - | - | - |
| 1788565021 | 36.67° C | 30% | 1062.9 hPa | - | - | - | - |
* Rain since midnight (hover to see other rain measurements)
** Current wind speed in m/s (hover to see current wind gust speed)